TimeEST,TemperatureF,Dew PointF,Humidity,Sea Level PressureIn,VisibilityMPH,Wind Direction,Wind SpeedMPH,Gust SpeedMPH,PrecipitationIn,Events,Conditions,WindDirDegrees,DateUTC
12:15 AM,57.2,57.2,100,30.11,10.0,NNE,9.2,16.1,0.00,,Overcast,20,2012-12-07 05:15:00
12:35 AM,55.4,55.4,100,30.10,10.0,North,10.4,-,0.00,,Overcast,10,2012-12-07 05:35:00
12:55 AM,55.4,55.4,100,30.10,10.0,North,8.1,17.3,0.00,,Overcast,10,2012-12-07 05:55:00
1:15 AM,55.4,55.4,100,30.09,10.0,NNE,9.2,-,0.00,,Overcast,20,2012-12-07 06:15:00
1:35 AM,55.4,55.4,100,30.09,10.0,NNE,11.5,-,0.00,,Overcast,20,2012-12-07 06:35:00
1:55 AM,55.4,55.4,100,30.08,10.0,NNE,11.5,-,0.00,Thunderstorm,Overcast,30,2012-12-07 06:55:00
2:15 AM,55.4,55.4,100,30.07,10.0,NNE,6.9,-,0.00,,Overcast,20,2012-12-07 07:15:00
2:35 AM,55.4,55.4,100,30.08,10.0,North,10.4,-,0.00,,Overcast,10,2012-12-07 07:35:00
2:55 AM,55.4,55.4,100,30.07,10.0,North,10.4,-,0.00,,Overcast,360,2012-12-07 07:55:00
3:15 AM,55.4,55.4,100,30.07,10.0,North,12.7,-,0.00,,Overcast,10,2012-12-07 08:15:00
3:35 AM,55.4,55.4,100,30.06,10.0,North,12.7,-,0.00,,Overcast,360,2012-12-07 08:35:00
3:55 AM,55.4,55.4,100,30.06,10.0,North,10.4,-,0.00,,Overcast,360,2012-12-07 08:55:00
4:15 AM,55.4,55.4,100,30.06,10.0,North,11.5,17.3,0.00,,Overcast,360,2012-12-07 09:15:00
4:35 AM,53.6,53.6,100,30.05,10.0,North,10.4,-,0.00,,Overcast,360,2012-12-07 09:35:00
4:55 AM,53.6,53.6,100,30.06,10.0,North,10.4,-,0.00,,Overcast,360,2012-12-07 09:55:00
5:15 AM,53.6,53.6,100,30.06,10.0,North,12.7,16.1,0.00,,Overcast,360,2012-12-07 10:15:00
5:35 AM,53.6,53.6,100,30.07,10.0,North,11.5,-,0.00,,Overcast,360,2012-12-07 10:35:00
7:50 AM,51.8,50.0,94,30.08,3.0,North,9.2,-,N/A,,Mostly Cloudy,360,2012-12-07 12:50:00
8:55 AM,51.8,51.8,100,30.08,3.0,NNW,5.8,-,N/A,,Overcast,340,2012-12-07 13:55:00
9:55 AM,51.8,51.8,100,30.09,1.0,NNW,9.2,-,N/A,,Overcast,340,2012-12-07 14:55:00
10:50 AM,51.8,51.8,100,30.10,1.5,North,8.1,-,N/A,,Overcast,360,2012-12-07 15:50:00
11:50 AM,55.4,51.8,88,30.07,5.0,North,6.9,16.1,N/A,,Overcast,10,2012-12-07 16:50:00
12:50 PM,57.2,51.8,82,30.03,8.0,North,6.9,13.8,N/A,,Overcast,360,2012-12-07 17:50:00
1:50 PM,59.0,53.6,82,30.01,8.0,North,6.9,-,N/A,,Overcast,350,2012-12-07 18:50:00
2:50 PM,59.0,53.6,82,30.01,8.0,NNW,5.8,-,N/A,,Overcast,330,2012-12-07 19:50:00
3:50 PM,60.8,53.6,77,30.00,10.0,NNW,4.6,-,N/A,,Mostly Cloudy,340,2012-12-07 20:50:00
4:20 PM,60.8,53.6,77,30.00,10.0,NW,4.6,-,N/A,,Mostly Cloudy,320,2012-12-07 21:20:00
4:50 PM,60.8,53.6,77,30.00,10.0,NW,3.5,-,N/A,,Mostly Cloudy,320,2012-12-07 21:50:00
5:50 PM,59.0,53.6,82,30.01,10.0,WNW,3.5,-,N/A,,Mostly Cloudy,300,2012-12-07 22:50:00
6:50 PM,60.8,53.6,77,30.03,10.0,North,5.8,-,N/A,,Mostly Cloudy,360,2012-12-07 23:50:00
8:15 PM,55.4,55.4,100,30.04,10.0,Calm,Calm,-,0.00,,Overcast,0,2012-12-08 01:15:00
8:35 PM,55.4,55.4,100,30.05,10.0,Calm,Calm,-,0.00,,Mostly Cloudy,0,2012-12-08 01:35:00
8:55 PM,55.4,55.4,100,30.05,7.0,Calm,Calm,-,0.00,,Partly Cloudy,0,2012-12-08 01:55:00
9:15 PM,53.6,53.6,100,30.05,7.0,Calm,Calm,-,0.00,,Clear,0,2012-12-08 02:15:00
9:55 PM,53.6,53.6,100,30.05,5.0,Calm,Calm,-,0.00,,Clear,0,2012-12-08 02:55:00
10:15 PM,51.8,51.8,100,30.05,5.0,Calm,Calm,-,0.00,,Mostly Cloudy,0,2012-12-08 03:15:00
10:35 PM,51.8,51.8,100,30.05,5.0,Calm,Calm,-,0.00,,Overcast,0,2012-12-08 03:35:00
10:55 PM,53.6,53.6,100,30.06,5.0,Calm,Calm,-,0.00,,Scattered Clouds,0,2012-12-08 03:55:00
11:35 PM,51.8,51.8,100,30.05,4.0,Calm,Calm,-,0.00,,Clear,0,2012-12-08 04:35:00
11:55 PM,51.8,51.8,100,30.05,3.0,Calm,Calm,-,0.00,,Clear,0,2012-12-08 04:55:00